| time (UTC) | temp C | wind direction | speed KPH | gust KPH | rain 1hr cm | rain 24hr cm | rain mn cm | humidity % | barometer mb |
| 20260502183040 | 14 | 70 | 0.0 | 4.8 | 0.00 | 0.00 | 0.00 | 60 | 1011.9 |
| 20260502182523 | 14 | 66 | 0.0 | 4.8 | 0.00 | 0.00 | 0.00 | 60 | 1012.0 |
| 20260502182028 | 14 | 66 | 0.0 | 4.8 | 0.00 | 0.00 | 0.00 | 60 | 1012.1 |
| 20260502181532 | 14 | 43 | 0.0 | 6.4 | 0.00 | 0.00 | 0.00 | 59 | 1012.1 |
| 20260502181055 | 14 | 351 | 0.0 | 8.0 | 0.00 | 0.00 | 0.00 | 60 | 1012.1 |
| 20260502180538 | 14 | 217 | 0.0 | 8.0 | 0.00 | 0.00 | 0.00 | 60 | 1012.1 |
| 20260502164036 | 14 | 126 | 0.0 | 8.0 | 0.00 | 0.00 | 0.00 | 60 | 1012.6 |
| 20260502163540 | 14 | 42 | 0.0 | 9.7 | 0.00 | 0.00 | 0.00 | 61 | 1012.7 |
| 20260502163024 | 14 | 5 | 1.6 | 9.7 | 0.00 | 0.00 | 0.00 | 62 | 1012.8 |
| 20260502162528 | 14 | 22 | 0.0 | 4.8 | 0.00 | 0.00 | 0.00 | 62 | 1013.1 |
| 20260502162052 | 13 | 234 | 0.0 | 9.7 | 0.00 | 0.00 | 0.00 | 62 | 1013.4 |
| 20260502161555 | 13 | 252 | 0.0 | 9.7 | 0.00 | 0.00 | 0.00 | 64 | 1013.4 |
| 20260502161038 | 13 | 42 | 1.6 | 6.4 | 0.00 | 0.00 | 0.00 | 64 | 1013.7 |
| 20260502160523 | 13 | 44 | 0.0 | 1.6 | 0.00 | 0.00 | 0.00 | 66 | 1013.8 |
| 20260502152044 | 13 | 59 | 0.0 | 11.3 | 0.00 | 0.00 | 0.00 | 67 | 1012.9 |
| 20260502151547 | 13 | 258 | 3.2 | 11.3 | 0.00 | 0.00 | 0.00 | 64 | 1013.0 |
| 20260502151030 | 13 | 48 | 0.0 | 4.8 | 0.00 | 0.00 | 0.00 | 68 | 1013.2 |
| 20260502150533 | 13 | 37 | 0.0 | 4.8 | 0.00 | 0.00 | 0.00 | 67 | 1013.1 |
| 20260502130530 | 11 | 61 | 0.0 | 4.8 | 0.00 | 0.00 | 0.00 | 76 | 1012.4 |
| 20260502123536 | 11 | 40 | 0.0 | 8.0 | 0.00 | 0.00 | 0.00 | 80 | 1012.5 |
| 20260502123041 | 11 | 51 | 0.0 | 3.2 | 0.00 | 0.00 | 0.00 | 81 | 1012.7 |
| 20260502122524 | 11 | 51 | 0.0 | 1.6 | 0.00 | 0.00 | 0.00 | 81 | 1012.5 |
| 20260502122029 | 10 | 51 | 0.0 | 1.6 | 0.00 | 0.00 | 0.00 | 81 | 1012.7 |
| 20260502121552 | 10 | 51 | 0.0 | 1.6 | 0.00 | 0.00 | 0.00 | 82 | 1012.6 |
| 20260502121035 | 10 | 51 | 0.0 | 3.2 | 0.00 | 0.00 | 0.00 | 82 | 1012.3 |
| 20260502120539 | 10 | 50 | 0.0 | 3.2 | 0.00 | 0.00 | 0.00 | 83 | 1012.5 |
| 20260502120104 | 10 | 50 | 0.0 | 3.2 | 0.00 | 0.00 | 0.00 | 84 | 1012.4 |
| 20260502115545 | 10 | 50 | 0.0 | 3.2 | 0.00 | 0.00 | 0.00 | 85 | 1012.5 |
| 20260502115028 | 10 | 51 | 0.0 | 1.6 | 0.00 | 0.00 | 0.00 | 86 | 1012.5 |
| 20260502114533 | 10 | 51 | 0.0 | 1.6 | 0.00 | 0.00 | 0.00 | 86 | 1012.5 |
| 20260502114037 | 10 | 51 | 0.0 | 8.0 | 0.00 | 0.00 | 0.00 | 87 | 1012.4 |
| 20260502113525 | 10 | 51 | 1.6 | 8.0 | 0.00 | 0.00 | 0.00 | 87 | 1012.3 |
| 20260502113030 | 10 | 147 | 0.0 | 0.0 | 0.00 | 0.00 | 0.00 | 88 | 1012.5 |
| 20260502112534 | 10 | 147 | 0.0 | 0.0 | 0.00 | 0.00 | 0.00 | 88 | 1012.4 |
| 20260502112038 | 10 | 147 | 0.0 | 0.0 | 0.00 | 0.00 | 0.00 | 88 | 1012.3 |
| 20260502111542 | 10 | 147 | 0.0 | 0.0 | 0.00 | 0.00 | 0.00 | 88 | 1012.3 |
| 20260502111026 | 10 | 147 | 0.0 | 0.0 | 0.00 | 0.00 | 0.00 | 88 | 1012.2 |
| 20260502110531 | 10 | 147 | 0.0 | 0.0 | 0.00 | 0.00 | 0.00 | 88 | 1012.3 |
| 20260502110034 | 10 | 147 | 0.0 | 0.0 | 0.00 | 0.00 | 0.00 | 88 | 1012.5 |
| 20260502105539 | 10 | 147 | 0.0 | 0.0 | 0.00 | 0.00 | 0.00 | 88 | 1012.6 |
| 20260502105042 | 10 | 147 | 0.0 | 0.0 | 0.00 | 0.00 | 0.00 | 89 | 1012.5 |
| 20260502104531 | 10 | 147 | 0.0 | 0.0 | 0.00 | 0.00 | 0.00 | 89 | 1012.6 |
| 20260502104035 | 10 | 147 | 0.0 | 0.0 | 0.00 | 0.00 | 0.00 | 89 | 1012.7 |
| 20260502103538 | 10 | 147 | 0.0 | 0.0 | 0.00 | 0.00 | 0.00 | 89 | 1012.7 |
| 20260502103042 | 10 | 147 | 0.0 | 0.0 | 0.00 | 0.00 | 0.00 | 89 | 1012.7 |
| 20260502102526 | 10 | 147 | 0.0 | 0.0 | 0.00 | 0.00 | 0.00 | 89 | 1012.7 |
| 20260502102029 | 10 | 147 | 0.0 | 0.0 | 0.00 | 0.00 | 0.00 | 89 | 1012.6 |
| 20260502101057 | 10 | 147 | 0.0 | 0.0 | 0.00 | 0.00 | 0.00 | 89 | 1012.7 |
| 20260502100541 | 10 | 147 | 0.0 | 0.0 | 0.00 | 0.00 | 0.00 | 89 | 1012.6 |
| 20260502091045 | 10 | 147 | 0.0 | 0.0 | 0.00 | 0.00 | 0.00 | 89 | 1012.3 |
| 20260502090528 | 10 | 147 | 0.0 | 0.0 | 0.00 | 0.00 | 0.00 | 89 | 1012.3 |
| 20260502071534 | 10 | 147 | 0.0 | 0.0 | 0.00 | 0.00 | 0.00 | 89 | 1011.3 |
| 20260502071039 | 10 | 147 | 0.0 | 0.0 | 0.00 | 0.00 | 0.00 | 89 | 1011.4 |
| 20260502070603 | 10 | 147 | 0.0 | 0.0 | 0.00 | 0.00 | 0.00 | 89 | 1011.5 |
| 20260502070025 | 10 | 147 | 0.0 | 0.0 | 0.00 | 0.00 | 0.00 | 89 | 1011.5 |
| 20260502065529 | 10 | 147 | 0.0 | 0.0 | 0.00 | 0.00 | 0.00 | 88 | 1011.6 |
| 20260502065032 | 10 | 147 | 0.0 | 0.0 | 0.00 | 0.00 | 0.00 | 88 | 1011.6 |
| 20260502064537 | 10 | 147 | 0.0 | 0.0 | 0.00 | 0.00 | 0.00 | 88 | 1011.7 |
| 20260502064100 | 10 | 147 | 0.0 | 0.0 | 0.00 | 0.00 | 0.00 | 88 | 1011.8 |
| 20260502063604 | 9 | 147 | 0.0 | 0.0 | 0.00 | 0.00 | 0.00 | 88 | 1011.9 |
| 20260502063027 | 9 | 147 | 0.0 | 0.0 | 0.00 | 0.00 | 0.00 | 88 | 1011.9 |
| 20260502062535 | 9 | 147 | 0.0 | 0.0 | 0.00 | 0.00 | 0.00 | 88 | 1012.0 |
| 20260502062038 | 9 | 147 | 0.0 | 0.0 | 0.00 | 0.00 | 0.00 | 87 | 1011.9 |
| 20260502061523 | 9 | 147 | 0.0 | 0.0 | 0.00 | 0.00 | 0.00 | 87 | 1011.9 |
| 20260502061027 | 9 | 147 | 0.0 | 0.0 | 0.00 | 0.00 | 0.00 | 87 | 1011.9 |
| 20260502060530 | 9 | 147 | 0.0 | 0.0 | 0.00 | 0.00 | 0.00 | 87 | 1011.8 |
| 20260502060034 | 9 | 147 | 0.0 | 0.0 | 0.00 | 0.00 | 0.00 | 87 | 1011.8 |
| 20260502055538 | 9 | 147 | 0.0 | 0.0 | 0.00 | 0.00 | 0.00 | 86 | 1011.7 |
| 20260502055041 | 9 | 147 | 0.0 | 0.0 | 0.00 | 0.00 | 0.00 | 86 | 1011.6 |
| 20260502054545 | 9 | 147 | 0.0 | 0.0 | 0.00 | 0.00 | 0.00 | 86 | 1011.6 |
| 20260502054029 | 9 | 147 | 0.0 | 0.0 | 0.00 | 0.00 | 0.00 | 86 | 1011.7 |
| 20260502053532 | 9 | 147 | 0.0 | 0.0 | 0.00 | 0.00 | 0.00 | 86 | 1011.6 |
| 20260502053036 | 10 | 147 | 0.0 | 0.0 | 0.00 | 0.00 | 0.00 | 86 | 1011.8 |
| 20260502052524 | 10 | 147 | 0.0 | 0.0 | 0.00 | 0.00 | 0.00 | 86 | 1011.8 |
| 20260502052048 | 10 | 147 | 0.0 | 0.0 | 0.00 | 0.00 | 0.00 | 85 | 1011.8 |
| 20260502051532 | 10 | 147 | 0.0 | 0.0 | 0.00 | 0.00 | 0.00 | 85 | 1011.9 |
| 20260502051036 | 10 | 147 | 0.0 | 0.0 | 0.00 | 0.00 | 0.00 | 85 | 1011.8 |
| 20260502050541 | 10 | 147 | 0.0 | 0.0 | 0.00 | 0.00 | 0.00 | 85 | 1011.9 |
| 20260502050043 | 10 | 147 | 0.0 | 0.0 | 0.00 | 0.00 | 0.00 | 85 | 1011.9 |
| 20260502045547 | 10 | 147 | 0.0 | 0.0 | 0.00 | 0.00 | 0.00 | 85 | 1011.9 |
| 20260502045030 | 10 | 147 | 0.0 | 0.0 | 0.00 | 0.00 | 0.00 | 85 | 1012.0 |
| 20260502044532 | 10 | 147 | 0.0 | 0.0 | 0.00 | 0.00 | 0.00 | 85 | 1012.1 |
| 20260502044036 | 10 | 147 | 0.0 | 0.0 | 0.00 | 0.00 | 0.00 | 85 | 1012.0 |
| 20260502043539 | 10 | 147 | 0.0 | 0.0 | 0.00 | 0.00 | 0.00 | 85 | 1012.1 |
| 20260502043043 | 10 | 147 | 0.0 | 0.0 | 0.00 | 0.00 | 0.00 | 85 | 1012.0 |
| 20260502042547 | 10 | 147 | 0.0 | 0.0 | 0.00 | 0.00 | 0.00 | 84 | 1012.1 |
| 20260502042034 | 10 | 147 | 0.0 | 0.0 | 0.00 | 0.00 | 0.00 | 84 | 1012.1 |
| 20260502041538 | 10 | 147 | 0.0 | 0.0 | 0.00 | 0.00 | 0.00 | 84 | 1012.1 |
| 20260502041042 | 10 | 147 | 0.0 | 0.0 | 0.00 | 0.00 | 0.00 | 84 | 1012.1 |
| 20260502040526 | 10 | 147 | 0.0 | 0.0 | 0.00 | 0.00 | 0.00 | 84 | 1012.2 |
| 20260502040051 | 10 | 147 | 0.0 | 0.0 | 0.00 | 0.00 | 0.00 | 84 | 1012.3 |
| 20260502035532 | 10 | 147 | 0.0 | 0.0 | 0.00 | 0.00 | 0.00 | 84 | 1012.3 |
| 20260502035035 | 10 | 147 | 0.0 | 0.0 | 0.00 | 0.00 | 0.00 | 84 | 1012.2 |
| 20260502034539 | 10 | 147 | 0.0 | 0.0 | 0.00 | 0.00 | 0.00 | 84 | 1012.2 |
| 20260502034042 | 10 | 147 | 0.0 | 0.0 | 0.00 | 0.00 | 0.00 | 84 | 1012.4 |
| 20260502033526 | 10 | 147 | 0.0 | 0.0 | 0.00 | 0.00 | 0.00 | 84 | 1012.3 |
| 20260502033029 | 10 | 147 | 0.0 | 0.0 | 0.00 | 0.00 | 0.00 | 84 | 1012.4 |
| 20260502032533 | 11 | 147 | 0.0 | 0.0 | 0.00 | 0.00 | 0.00 | 84 | 1012.3 |
| 20260502032041 | 11 | 147 | 0.0 | 0.0 | 0.00 | 0.00 | 0.00 | 84 | 1012.3 |
| 20260502031524 | 11 | 147 | 0.0 | 0.0 | 0.00 | 0.00 | 0.00 | 84 | 1012.2 |
| 20260502031028 | 11 | 147 | 0.0 | 0.0 | 0.00 | 0.00 | 0.00 | 84 | 1012.3 |
| 20260502030553 | 11 | 147 | 0.0 | 0.0 | 0.00 | 0.00 | 0.00 | 84 | 1012.5 |
| 20260502030056 | 11 | 147 | 0.0 | 3.2 | 0.00 | 0.00 | 0.00 | 83 | 1012.3 |
| 20260502025539 | 11 | 135 | 0.0 | 0.0 | 0.00 | 0.00 | 0.00 | 83 | 1012.4 |
| 20260502025042 | 11 | 135 | 0.0 | 1.6 | 0.00 | 0.00 | 0.00 | 83 | 1012.4 |
| 20260502024525 | 11 | 135 | 0.0 | 4.8 | 0.00 | 0.00 | 0.00 | 83 | 1012.3 |
| 20260502024049 | 11 | 135 | 0.0 | 4.8 | 0.00 | 0.00 | 0.00 | 83 | 1012.3 |
| 20260502023553 | 11 | 227 | 0.0 | 1.6 | 0.00 | 0.00 | 0.00 | 82 | 1012.3 |
| 20260502023037 | 11 | 227 | 0.0 | 0.0 | 0.00 | 0.00 | 0.00 | 82 | 1012.3 |
| 20260502022541 | 11 | 229 | 0.0 | 1.6 | 0.00 | 0.00 | 0.00 | 82 | 1012.2 |
| 20260502022024 | 11 | 229 | 0.0 | 1.6 | 0.00 | 0.00 | 0.00 | 82 | 1012.3 |
| 20260502021528 | 11 | 232 | 0.0 | 4.8 | 0.00 | 0.00 | 0.00 | 81 | 1012.3 |
| 20260502021036 | 11 | 221 | 0.0 | 3.2 | 0.00 | 0.00 | 0.00 | 81 | 1012.4 |
| 20260502020538 | 11 | 217 | 0.0 | 3.2 | 0.00 | 0.00 | 0.00 | 81 | 1012.3 |
| 20260502020042 | 11 | 238 | 0.0 | 4.8 | 0.00 | 0.00 | 0.00 | 81 | 1012.3 |
| 20260502015526 | 11 | 238 | 0.0 | 4.8 | 0.00 | 0.00 | 0.00 | 80 | 1012.4 |
| 20260502015029 | 11 | 211 | 0.0 | 1.6 | 0.00 | 0.00 | 0.00 | 80 | 1012.4 |
| 20260502014534 | 11 | 211 | 0.0 | 4.8 | 0.00 | 0.00 | 0.00 | 80 | 1012.4 |
| 20260502014037 | 11 | 210 | 0.0 | 6.4 | 0.00 | 0.00 | 0.00 | 80 | 1012.3 |
| 20260502013541 | 11 | 210 | 0.0 | 6.4 | 0.00 | 0.00 | 0.00 | 80 | 1012.3 |
| 20260502013025 | 12 | 176 | 0.0 | 6.4 | 0.00 | 0.00 | 0.00 | 79 | 1012.2 |
| 20260502012528 | 12 | 169 | 1.6 | 6.4 | 0.00 | 0.00 | 0.00 | 79 | 1012.2 |
| 20260502012032 | 12 | 231 | 0.0 | 4.8 | 0.00 | 0.00 | 0.00 | 79 | 1012.2 |
| 20260502011539 | 12 | 231 | 0.0 | 4.8 | 0.00 | 0.00 | 0.00 | 79 | 1012.1 |
| 20260502011042 | 12 | 225 | 1.6 | 6.4 | 0.00 | 0.00 | 0.00 | 78 | 1012.2 |
| 20260502010527 | 12 | 223 | 0.0 | 6.4 | 0.00 | 0.00 | 0.00 | 78 | 1012.0 |
| 20260502010030 | 12 | 207 | 0.0 | 3.2 | 0.00 | 0.00 | 0.00 | 78 | 1012.0 |
| 20260502005535 | 12 | 207 | 0.0 | 1.6 | 0.00 | 0.00 | 0.00 | 77 | 1011.8 |
| 20260502005040 | 12 | 207 | 0.0 | 3.2 | 0.00 | 0.00 | 0.00 | 77 | 1011.8 |
| 20260502004542 | 12 | 207 | 0.0 | 6.4 | 0.00 | 0.00 | 0.00 | 77 | 1011.8 |
| 20260502004026 | 12 | 212 | 1.6 | 6.4 | 0.00 | 0.00 | 0.00 | 76 | 1011.9 |
| 20260502003551 | 12 | 210 | 0.0 | 3.2 | 0.00 | 0.00 | 0.00 | 75 | 1011.8 |
| 20260502003033 | 13 | 210 | 0.0 | 1.6 | 0.00 | 0.00 | 0.00 | 75 | 1011.7 |
| 20260502002538 | 13 | 210 | 0.0 | 1.6 | 0.00 | 0.00 | 0.00 | 74 | 1011.7 |
| 20260502002025 | 13 | 210 | 0.0 | 0.0 | 0.00 | 0.00 | 0.00 | 73 | 1011.6 |
| 20260502001549 | 13 | 210 | 0.0 | 3.2 | 0.00 | 0.00 | 0.00 | 73 | 1011.4 |
| 20260502001032 | 13 | 210 | 0.0 | 4.8 | 0.00 | 0.00 | 0.00 | 73 | 1011.3 |
| 20260502000537 | 13 | 209 | 0.0 | 6.4 | 0.00 | 0.00 | 0.00 | 72 | 1011.4 |
| 20260502000041 | 13 | 225 | 0.0 | 6.4 | 0.00 | 0.00 | 0.00 | 71 | 1011.4 |
| 20260501235524 | 14 | 46 | 0.0 | 0.0 | 0.00 | 0.00 | 0.00 | 70 | 1011.4 |
| 20260501235029 | 14 | 46 | 0.0 | 1.6 | 0.00 | 0.00 | 0.00 | 70 | 1011.3 |
| 20260501234531 | 14 | 46 | 0.0 | 3.2 | 0.00 | 0.00 | 0.00 | 69 | 1011.3 |
| 20260501234035 | 14 | 46 | 0.0 | 3.2 | 0.00 | 0.00 | 0.00 | 69 | 1011.4 |
| 20260501233539 | 14 | 138 | 0.0 | 11.3 | 0.00 | 0.00 | 0.00 | 69 | 1011.3 |
| 20260501233024 | 15 | 200 | 1.6 | 11.3 | 0.00 | 0.00 | 0.00 | 68 | 1011.3 |
| 20260501232549 | 15 | 111 | 1.6 | 8.0 | 0.00 | 0.00 | 0.00 | 67 | 1011.3 |
| 20260501232031 | 15 | 198 | 0.0 | 11.3 | 0.00 | 0.00 | 0.00 | 66 | 1011.3 |
| 20260501231539 | 15 | 229 | 3.2 | 11.3 | 0.00 | 0.00 | 0.00 | 66 | 1011.2 |
| 20260501231042 | 15 | 98 | 0.0 | 3.2 | 0.00 | 0.00 | 0.00 | 66 | 1011.1 |
| 20260501230527 | 15 | 153 | 0.0 | 12.9 | 0.00 | 0.00 | 0.00 | 65 | 1011.2 |
| 20260501230031 | 15 | 188 | 1.6 | 8.0 | 0.00 | 0.00 | 0.00 | 65 | 1011.3 |
| 20260501225535 | 15 | 115 | 0.0 | 4.8 | 0.00 | 0.00 | 0.00 | 64 | 1011.2 |
| 20260501225039 | 16 | 213 | 0.0 | 6.4 | 0.00 | 0.00 | 0.00 | 63 | 1011.2 |
| 20260501224543 | 16 | 133 | 0.0 | 11.3 | 0.00 | 0.00 | 0.00 | 63 | 1011.2 |
| 20260501224047 | 16 | 104 | 1.6 | 11.3 | 0.00 | 0.00 | 0.00 | 63 | 1011.3 |
| 20260501223529 | 16 | 148 | 0.0 | 9.7 | 0.00 | 0.00 | 0.00 | 63 | 1011.3 |
| 20260501223033 | 16 | 286 | 0.0 | 8.0 | 0.00 | 0.00 | 0.00 | 64 | 1011.4 |
| 20260501222538 | 16 | 288 | 1.6 | 8.0 | 0.00 | 0.00 | 0.00 | 63 | 1011.3 |
| 20260501222026 | 16 | 196 | 1.6 | 12.9 | 0.00 | 0.00 | 0.00 | 63 | 1011.3 |
| 20260501221531 | 17 | 94 | 3.2 | 12.9 | 0.00 | 0.00 | 0.00 | 62 | 1011.3 |
| 20260501221056 | 17 | 241 | 0.0 | 8.0 | 0.00 | 0.00 | 0.00 | 62 | 1011.2 |
| 20260501220537 | 17 | 190 | 0.0 | 6.4 | 0.00 | 0.00 | 0.00 | 62 | 1011.3 |
| 20260501220040 | 17 | 294 | 1.6 | 6.4 | 0.00 | 0.00 | 0.00 | 62 | 1011.3 |
| 20260501215524 | 17 | 252 | 1.6 | 9.7 | 0.00 | 0.00 | 0.00 | 61 | 1011.3 |
| 20260501215048 | 17 | 185 | 3.2 | 12.9 | 0.00 | 0.00 | 0.00 | 59 | 1011.3 |
| 20260501214552 | 17 | 166 | 1.6 | 19.3 | 0.00 | 0.00 | 0.00 | 58 | 1011.4 |
| 20260501214031 | 17 | 227 | 0.0 | 19.3 | 0.00 | 0.00 | 0.00 | 58 | 1011.4 |
| 20260501213535 | 18 | 313 | 1.6 | 14.5 | 0.00 | 0.00 | 0.00 | 56 | 1011.5 |
| 20260501213038 | 18 | 138 | 0.0 | 9.7 | 0.00 | 0.00 | 0.00 | 54 | 1011.4 |
| 20260501212543 | 18 | 182 | 1.6 | 8.0 | 0.00 | 0.00 | 0.00 | 54 | 1011.4 |
| 20260501212027 | 18 | 197 | 1.6 | 8.0 | 0.00 | 0.00 | 0.00 | 53 | 1011.4 |
| 20260501211530 | 19 | 229 | 0.0 | 4.8 | 0.00 | 0.00 | 0.00 | 53 | 1011.5 |
| 20260501211055 | 19 | 105 | 0.0 | 8.0 | 0.00 | 0.00 | 0.00 | 51 | 1011.7 |
| 20260501210541 | 19 | 242 | 0.0 | 9.7 | 0.00 | 0.00 | 0.00 | 50 | 1011.8 |
| 20260501210024 | 19 | 81 | 1.6 | 9.7 | 0.00 | 0.00 | 0.00 | 51 | 1011.8 |
| 20260501205529 | 20 | 197 | 1.6 | 8.0 | 0.00 | 0.00 | 0.00 | 52 | 1011.7 |
| 20260501205033 | 20 | 298 | 1.6 | 11.3 | 0.00 | 0.00 | 0.00 | 50 | 1011.8 |
| 20260501204536 | 20 | 181 | 3.2 | 11.3 | 0.00 | 0.00 | 0.00 | 51 | 1011.7 |
| 20260501204040 | 20 | 207 | 1.6 | 8.0 | 0.00 | 0.00 | 0.00 | 51 | 1011.6 |
| 20260501203525 | 20 | 121 | 1.6 | 9.7 | 0.00 | 0.00 | 0.00 | 52 | 1011.7 |
| 20260501203050 | 20 | 183 | 1.6 | 9.7 | 0.00 | 0.00 | 0.00 | 51 | 1011.8 |
| 20260501202552 | 20 | 96 | 3.2 | 9.7 | 0.00 | 0.00 | 0.00 | 49 | 1011.8 |
| 20260501202036 | 20 | 176 | 1.6 | 9.7 | 0.00 | 0.00 | 0.00 | 49 | 1011.9 |
| 20260501201600 | 20 | 157 | 1.6 | 9.7 | 0.00 | 0.00 | 0.00 | 48 | 1011.9 |
| 20260501201023 | 20 | 321 | 1.6 | 6.4 | 0.00 | 0.00 | 0.00 | 48 | 1011.8 |
| 20260501200527 | 20 | 155 | 0.0 | 8.0 | 0.00 | 0.00 | 0.00 | 48 | 1011.9 |
| 20260501200036 | 20 | 121 | 0.0 | 9.7 | 0.00 | 0.00 | 0.00 | 47 | 1012.0 |
| 20260501195539 | 20 | 191 | 1.6 | 9.7 | 0.00 | 0.00 | 0.00 | 46 | 1012.1 |
| 20260501195023 | 21 | 19 | 3.2 | 11.3 | 0.00 | 0.00 | 0.00 | 44 | 1012.2 |
| 20260501194526 | 21 | 261 | 3.2 | 11.3 | 0.00 | 0.00 | 0.00 | 48 | 1012.2 |
| 20260501194030 | 21 | 116 | 3.2 | 9.7 | 0.00 | 0.00 | 0.00 | 46 | 1012.2 |
| 20260501193535 | 21 | 164 | 1.6 | 8.0 | 0.00 | 0.00 | 0.00 | 47 | 1012.4 |
| 20260501193040 | 21 | 230 | 3.2 | 8.0 | 0.00 | 0.00 | 0.00 | 47 | 1012.5 |
| 20260501192525 | 21 | 300 | 3.2 | 8.0 | 0.00 | 0.00 | 0.00 | 47 | 1012.6 |
| 20260501192029 | 21 | 107 | 0.0 | 9.7 | 0.00 | 0.00 | 0.00 | 48 | 1012.6 |
| 20260501191532 | 21 | 149 | 3.2 | 9.7 | 0.00 | 0.00 | 0.00 | 43 | 1012.6 |
| 20260501191036 | 21 | 123 | 0.0 | 9.7 | 0.00 | 0.00 | 0.00 | 46 | 1012.7 |
| 20260501190525 | 21 | 129 | 4.8 | 9.7 | 0.00 | 0.00 | 0.00 | 45 | 1012.8 |
| 20260501190049 | 21 | 162 | 0.0 | 9.7 | 0.00 | 0.00 | 0.00 | 44 | 1012.9 |
| 20260501185533 | 21 | 125 | 4.8 | 9.7 | 0.00 | 0.00 | 0.00 | 48 | 1012.9 |
| 20260501185037 | 21 | 105 | 1.6 | 6.4 | 0.00 | 0.00 | 0.00 | 47 | 1012.9 |
| 20260501184601 | 20 | 313 | 1.6 | 11.3 | 0.00 | 0.00 | 0.00 | 50 | 1013.1 |
| 20260501184024 | 20 | 82 | 1.6 | 11.3 | 0.00 | 0.00 | 0.00 | 45 | 1013.3 |
| 20260501183549 | 20 | 157 | 3.2 | 9.7 | 0.00 | 0.00 | 0.00 | 48 | 1013.3 |